This is the latest recevied weather packets stored in our database for station/object YM2KV-13. If no packets are shown the sender has not sent any weather packets the latest 10 day(s).
| Time | Temp. | Humidity | Pressure | Rain* | Wind** | Luminosity | Snow |
|---|---|---|---|---|---|---|---|
| 1777724982 | 12.78° C | 63% | 1027.9 hPa | - | - | - | - |
| 1777724382 | 12.78° C | 61% | 1027.9 hPa | - | - | - | - |
| 1777723782 | 13.33° C | 60% | 1027.9 hPa | - | - | - | - |
| 1777723182 | 13.33° C | 59% | 1027.9 hPa | - | - | - | - |
| 1777722582 | 13.89° C | 58% | 1028 hPa | - | - | - | - |
| 1777721982 | 13.89° C | 58% | 1028.2 hPa | - | - | - | - |
| 1777721382 | 14.44° C | 58% | 1028.2 hPa | - | - | - | - |
| 1777720782 | 14.44° C | 57% | 1028.4 hPa | - | - | - | - |
| 1777720182 | 14.44° C | 56% | 1028.4 hPa | - | - | - | - |
| 1777719582 | 14.44° C | 57% | 1028.4 hPa | - | - | - | - |
| 1777718982 | 15° C | 56% | 1028.5 hPa | - | - | - | - |
| 1777718382 | 15° C | 56% | 1028.4 hPa | - | - | - | - |
| 1777717782 | 13.89° C | 56% | 1028.5 hPa | - | - | - | - |
| 1777717182 | 13.89° C | 60% | 1028.6 hPa | - | - | - | - |
| 1777716582 | 13.33° C | 60% | 1028.8 hPa | - | - | - | - |
| 1777715982 | 13.89° C | 58% | 1028.8 hPa | - | - | - | - |
| 1777715382 | 13.89° C | 58% | 1028.6 hPa | - | - | - | - |
| 1777714782 | 14.44° C | 59% | 1028.7 hPa | - | - | - | - |
| 1777714182 | 15° C | 58% | 1028.8 hPa | - | - | - | - |
| 1777713582 | 15° C | 58% | 1028.9 hPa | - | - | - | - |
| 1777712982 | 14.44° C | 58% | 1028.9 hPa | - | - | - | - |
| 1777712382 | 14.44° C | 58% | 1029 hPa | - | - | - | - |
| 1777711782 | 13.89° C | 59% | 1029.1 hPa | - | - | - | - |
| 1777711182 | 13.89° C | 58% | 1029.3 hPa | - | - | - | - |
| 1777710582 | 13.89° C | 59% | 1029.3 hPa | - | - | - | - |
* Rain since midnight (hover to see other rain measurements)
** Current wind speed in m/s (hover to see current wind gust speed)